Location: Peterborough
(44.3091°N, 78.3197°W)
Time: 23:46:24
(UTC-04:00)

Vanguard 2 Rocket - Pass Details

Date: 31 March 2023
Orbit: 554 x 3314 km, 32.9° (Epoch: 02 June)

Event Time Altitude Azimuth Distance (km) Brightness Sun altitude
Rises 00:12:10 0° 265° (W) 4,370 10.6 -39.5°
Reaches altitude 10° 00:15:14 10° 253° (WSW) 3,746 10.0 -39.7°
Enters shadow 00:16:47 15° 245° (WSW) 3,518 9.8 -39.8°
Maximum altitude 00:23:25 27° 200° (SSW) 3,410 - -40.1°
Drops below altitude 10° 00:35:28 10° 151° (SSE) 5,614 - -40.7°
Sets 00:41:32 0° 142° (SE) 6,972 - -41.0°
